Time,TemperatureF,DewpointF,PressureIn,WindDirection,WindDirectionDegrees,WindSpeedMPH,WindSpeedGustMPH,Humidity,HourlyPrecipIn,Conditions,Clouds,dailyrainin,SoftwareType,DateUTC
2013-02-06 00:07:00,26.4,24.0,30.09,NNE,26,0.0,0.0,91,0.00,,,0.00,weatherlink.com 1.10,2013-02-06 05:07:00,
2013-02-06 00:22:00,26.0,24.0,30.09,NNW,340,0.0,0.0,91,0.00,,,0.00,weatherlink.com 1.10,2013-02-06 05:22:00,
2013-02-06 00:37:00,25.7,24.0,30.11,NNE,16,0.0,0.0,91,0.00,,,0.00,weatherlink.com 1.10,2013-02-06 05:37:00,
2013-02-06 00:52:00,25.4,23.0,30.11,NE,34,0.0,0.0,90,0.00,,,0.00,weatherlink.com 1.10,2013-02-06 05:52:00,
2013-02-06 01:07:00,25.1,23.0,30.11,NNE,19,0.0,0.0,90,0.00,,,0.00,weatherlink.com 1.10,2013-02-06 06:07:00,
2013-02-06 01:22:00,24.9,23.0,30.12,NNW,328,0.0,0.0,91,0.00,,,0.00,weatherlink.com 1.10,2013-02-06 06:22:00,
2013-02-06 01:37:00,24.7,23.0,30.13,NW,326,0.0,0.0,91,0.00,,,0.00,weatherlink.com 1.10,2013-02-06 06:37:00,
2013-02-06 01:52:00,24.6,22.0,30.13,NW,326,0.0,0.0,91,0.00,,,0.00,weatherlink.com 1.10,2013-02-06 06:52:00,
2013-02-06 02:07:00,24.4,22.0,30.14,NW,326,0.0,0.0,91,0.00,,,0.00,weatherlink.com 1.10,2013-02-06 07:07:00,
2013-02-06 02:22:00,24.3,22.0,30.15,NW,326,0.0,0.0,91,0.00,,,0.00,weatherlink.com 1.10,2013-02-06 07:22:00,
2013-02-06 02:37:00,24.1,22.0,30.17,NW,326,0.0,0.0,91,0.00,,,0.00,weatherlink.com 1.10,2013-02-06 07:37:00,
2013-02-06 02:52:00,24.0,22.0,30.16,NNW,333,0.0,0.0,91,0.00,,,0.00,weatherlink.com 1.10,2013-02-06 07:52:00,
2013-02-06 03:07:00,23.6,21.0,30.17,NNW,333,0.0,0.0,91,0.00,,,0.00,weatherlink.com 1.10,2013-02-06 08:07:00,
2013-02-06 03:22:00,23.3,21.0,30.17,NNW,333,0.0,0.0,92,0.00,,,0.00,weatherlink.com 1.10,2013-02-06 08:22:00,
2013-02-06 03:37:00,23.0,21.0,30.19,NNW,333,0.0,0.0,92,0.00,,,0.00,weatherlink.com 1.10,2013-02-06 08:37:00,
2013-02-06 03:52:00,23.0,21.0,30.18,NNW,333,0.0,0.0,93,0.00,,,0.00,weatherlink.com 1.10,2013-02-06 08:52:00,
2013-02-06 04:07:00,22.6,21.0,30.19,NNW,333,0.0,0.0,92,0.00,,,0.00,weatherlink.com 1.10,2013-02-06 09:07:00,
2013-02-06 04:22:00,22.5,21.0,30.19,NNW,333,0.0,0.0,93,0.00,,,0.00,weatherlink.com 1.10,2013-02-06 09:22:00,
2013-02-06 04:37:00,22.3,21.0,30.19,NNW,333,0.0,0.0,93,0.00,,,0.00,weatherlink.com 1.10,2013-02-06 09:37:00,
2013-02-06 05:07:00,21.7,20.0,30.20,NNW,333,0.0,0.0,94,0.00,,,0.00,weatherlink.com 1.10,2013-02-06 10:07:00,
2013-02-06 05:22:00,21.1,20.0,30.21,NNW,333,0.0,0.0,94,0.00,,,0.00,weatherlink.com 1.10,2013-02-06 10:22:00,
2013-02-06 05:37:00,20.5,19.0,30.21,NNW,333,0.0,0.0,94,0.00,,,0.00,weatherlink.com 1.10,2013-02-06 10:37:00,
2013-02-06 05:52:00,20.0,19.0,30.22,NNW,333,0.0,0.0,94,0.00,,,0.00,weatherlink.com 1.10,2013-02-06 10:52:00,
2013-02-06 06:08:00,19.7,19.0,30.22,NNW,333,0.0,0.0,95,0.00,,,0.00,weatherlink.com 1.10,2013-02-06 11:08:00,
2013-02-06 06:23:00,18.8,17.0,30.23,NNW,333,0.0,0.0,94,0.00,,,0.00,weatherlink.com 1.10,2013-02-06 11:23:00,
2013-02-06 06:38:00,17.2,16.0,30.24,NNW,333,0.0,0.0,93,0.00,,,0.00,weatherlink.com 1.10,2013-02-06 11:38:00,
2013-02-06 06:53:00,16.1,15.0,30.25,NNW,333,0.0,0.0,93,0.00,,,0.00,weatherlink.com 1.10,2013-02-06 11:53:00,
2013-02-06 07:08:00,14.8,13.0,30.25,NNW,333,0.0,0.0,93,0.00,,,0.00,weatherlink.com 1.10,2013-02-06 12:08:00,
2013-02-06 07:23:00,14.5,13.0,30.27,NNW,333,0.0,0.0,94,0.00,,,0.00,weatherlink.com 1.10,2013-02-06 12:23:00,
2013-02-06 07:38:00,13.4,12.0,30.27,NNW,333,0.0,0.0,92,0.00,,,0.00,weatherlink.com 1.10,2013-02-06 12:38:00,
2013-02-06 07:53:00,13.4,12.0,30.27,NNW,333,0.0,0.0,94,0.00,,,0.00,weatherlink.com 1.10,2013-02-06 12:53:00,
2013-02-06 08:08:00,12.9,12.0,30.28,NNW,333,0.0,0.0,94,0.00,,,0.00,weatherlink.com 1.10,2013-02-06 13:08:00,
2013-02-06 08:23:00,13.5,12.0,30.28,NNW,333,0.0,0.0,94,0.00,,,0.00,weatherlink.com 1.10,2013-02-06 13:23:00,
2013-02-06 08:38:00,13.5,12.0,30.29,NNW,333,0.0,0.0,94,0.00,,,0.00,weatherlink.com 1.10,2013-02-06 13:38:00,
2013-02-06 08:53:00,15.4,14.0,30.29,NNW,333,0.0,0.0,95,0.00,,,0.00,weatherlink.com 1.10,2013-02-06 13:53:00,
2013-02-06 09:08:00,16.9,16.0,30.29,SSE,156,0.0,0.0,95,0.00,,,0.00,weatherlink.com 1.10,2013-02-06 14:08:00,
2013-02-06 09:23:00,18.8,18.0,30.30,SSE,166,0.0,0.0,95,0.00,,,0.00,weatherlink.com 1.10,2013-02-06 14:23:00,
2013-02-06 09:38:00,22.9,22.0,30.30,ESE,118,0.0,0.0,96,0.00,,,0.00,weatherlink.com 1.10,2013-02-06 14:38:00,
2013-02-06 09:53:00,26.8,23.0,30.30,SSW,208,0.0,0.0,84,0.00,,,0.00,weatherlink.com 1.10,2013-02-06 14:53:00,
2013-02-06 10:08:00,29.9,24.0,30.31,ESE,117,0.0,0.0,79,0.00,,,0.00,weatherlink.com 1.10,2013-02-06 15:08:00,
2013-02-06 10:23:00,32.6,23.0,30.31,SE,125,0.0,0.0,69,0.00,,,0.00,weatherlink.com 1.10,2013-02-06 15:23:00,
2013-02-06 10:38:00,32.0,24.0,30.32,SE,124,0.0,0.0,71,0.00,,,0.00,weatherlink.com 1.10,2013-02-06 15:38:00,
2013-02-06 10:53:00,33.5,24.0,30.32,SSW,201,0.0,0.0,67,0.00,,,0.00,weatherlink.com 1.10,2013-02-06 15:53:00,
2013-02-06 11:08:00,33.9,24.0,30.32,WSW,239,0.0,0.0,68,0.00,,,0.00,weatherlink.com 1.10,2013-02-06 16:08:00,
2013-02-06 11:24:00,34.4,23.0,30.32,SE,141,0.0,0.0,64,0.00,,,0.00,weatherlink.com 1.10,2013-02-06 16:24:00,
2013-02-06 11:39:00,33.7,22.0,30.32,SE,145,0.0,0.0,62,0.00,,,0.00,weatherlink.com 1.10,2013-02-06 16:39:00,
2013-02-06 11:54:00,35.7,24.0,30.32,SSE,154,0.0,1.0,62,0.00,,,0.00,weatherlink.com 1.10,2013-02-06 16:54:00,
2013-02-06 12:09:00,33.7,21.0,30.32,West,276,0.0,5.0,59,0.01,,,0.01,weatherlink.com 1.10,2013-02-06 17:09:00,
2013-02-06 12:24:00,34.2,21.0,30.33,SW,228,2.0,5.0,60,0.03,,,0.03,weatherlink.com 1.10,2013-02-06 17:24:00,
2013-02-06 12:39:00,33.9,20.0,30.33,SW,233,3.0,5.0,58,0.03,,,0.03,weatherlink.com 1.10,2013-02-06 17:39:00,
2013-02-06 12:54:00,34.4,21.0,30.32,South,187,2.0,6.0,58,0.04,,,0.04,weatherlink.com 1.10,2013-02-06 17:54:00,
2013-02-06 13:09:00,34.9,21.0,30.31,SSE,164,5.0,7.0,57,0.04,,,0.05,weatherlink.com 1.10,2013-02-06 18:09:00,
2013-02-06 13:24:00,35.2,20.0,30.30,SE,141,1.0,5.0,54,0.03,,,0.06,weatherlink.com 1.10,2013-02-06 18:24:00,
2013-02-06 13:39:00,35.9,20.0,30.31,SSE,148,2.0,4.0,53,0.04,,,0.07,weatherlink.com 1.10,2013-02-06 18:39:00,
2013-02-06 13:54:00,36.8,21.0,30.30,SW,232,2.0,5.0,53,0.04,,,0.08,weatherlink.com 1.10,2013-02-06 18:54:00,
2013-02-06 14:09:00,36.2,21.0,30.30,WNW,285,2.0,5.0,54,0.03,,,0.08,weatherlink.com 1.10,2013-02-06 19:09:00,
2013-02-06 14:24:00,36.9,21.0,30.29,ENE,74,2.0,4.0,54,0.03,,,0.09,weatherlink.com 1.10,2013-02-06 19:24:00,
2013-02-06 14:39:00,36.0,21.0,30.29,ESE,123,5.0,6.0,55,0.02,,,0.09,weatherlink.com 1.10,2013-02-06 19:39:00,
2013-02-06 14:54:00,36.6,21.0,30.29,WSW,245,1.0,5.0,54,0.02,,,0.10,weatherlink.com 1.10,2013-02-06 19:54:00,
2013-02-06 15:09:00,36.3,21.0,30.29,WSW,245,2.0,7.0,55,0.02,,,0.10,weatherlink.com 1.10,2013-02-06 20:09:00,
2013-02-06 15:24:00,35.8,21.0,30.29,SW,214,2.0,6.0,55,0.01,,,0.10,weatherlink.com 1.10,2013-02-06 20:24:00,
2013-02-06 15:39:00,36.8,22.0,30.29,SSW,193,2.0,5.0,55,0.01,,,0.10,weatherlink.com 1.10,2013-02-06 20:39:00,
2013-02-06 15:54:00,36.7,22.0,30.28,SSE,150,3.0,6.0,55,0.01,,,0.11,weatherlink.com 1.10,2013-02-06 20:54:00,
2013-02-06 16:09:00,36.3,23.0,30.29,West,260,1.0,6.0,58,0.01,,,0.11,weatherlink.com 1.10,2013-02-06 21:09:00,
2013-02-06 16:24:00,35.2,22.0,30.29,SSE,161,2.0,5.0,59,0.01,,,0.11,weatherlink.com 1.10,2013-02-06 21:24:00,
2013-02-06 16:39:00,34.3,22.0,30.29,SSW,198,1.0,3.0,60,0.01,,,0.11,weatherlink.com 1.10,2013-02-06 21:39:00,
2013-02-06 16:54:00,33.6,20.0,30.29,SW,232,2.0,6.0,59,0.00,,,0.11,weatherlink.com 1.10,2013-02-06 21:54:00,
2013-02-06 17:09:00,32.9,20.0,30.29,ESE,115,0.0,3.0,60,0.00,,,0.11,weatherlink.com 1.10,2013-02-06 22:09:00,
2013-02-06 17:24:00,32.1,20.0,30.29,SE,138,0.0,4.0,62,0.00,,,0.11,weatherlink.com 1.10,2013-02-06 22:24:00,
2013-02-06 17:39:00,30.9,21.0,30.29,ESE,116,1.0,4.0,66,0.00,,,0.11,weatherlink.com 1.10,2013-02-06 22:39:00,
2013-02-06 17:54:00,29.7,21.0,30.30,ESE,115,2.0,5.0,69,0.00,,,0.11,weatherlink.com 1.10,2013-02-06 22:54:00,
2013-02-06 18:09:00,28.7,21.0,30.30,East,94,2.0,3.0,73,0.00,,,0.11,weatherlink.com 1.10,2013-02-06 23:09:00,
2013-02-06 18:24:00,27.9,21.0,30.30,SSE,149,0.0,2.0,75,0.00,,,0.11,weatherlink.com 1.10,2013-02-06 23:24:00,
2013-02-06 18:39:00,27.0,21.0,30.30,ESE,110,0.0,1.0,79,0.00,,,0.11,weatherlink.com 1.10,2013-02-06 23:39:00,
2013-02-06 18:54:00,26.6,21.0,30.30,SE,124,0.0,4.0,79,0.00,,,0.11,weatherlink.com 1.10,2013-02-06 23:54:00,
2013-02-06 19:09:00,26.9,21.0,30.30,ENE,70,0.0,1.0,78,0.00,,,0.11,weatherlink.com 1.10,2013-02-07 00:09:00,
2013-02-06 19:24:00,27.5,21.0,30.29,ESE,120,1.0,3.0,75,0.00,,,0.11,weatherlink.com 1.10,2013-02-07 00:24:00,
2013-02-06 19:39:00,27.7,21.0,30.29,SSE,148,2.0,3.0,75,0.00,,,0.11,weatherlink.com 1.10,2013-02-07 00:39:00,
2013-02-06 19:54:00,27.8,21.0,30.29,South,183,1.0,4.0,74,0.00,,,0.11,weatherlink.com 1.10,2013-02-07 00:54:00,
2013-02-06 20:09:00,27.6,21.0,30.28,South,169,0.0,3.0,75,0.00,,,0.11,weatherlink.com 1.10,2013-02-07 01:09:00,
2013-02-06 20:24:00,27.5,21.0,30.28,South,184,2.0,4.0,75,0.00,,,0.11,weatherlink.com 1.10,2013-02-07 01:24:00,
2013-02-06 20:39:00,27.5,21.0,30.28,SSE,147,1.0,4.0,75,0.00,,,0.11,weatherlink.com 1.10,2013-02-07 01:39:00,
2013-02-06 20:54:00,27.4,21.0,30.26,SSE,153,0.0,6.0,76,0.00,,,0.11,weatherlink.com 1.10,2013-02-07 01:54:00,
2013-02-06 21:09:00,27.3,20.0,30.26,SE,142,2.0,7.0,75,0.00,,,0.11,weatherlink.com 1.10,2013-02-07 02:09:00,
2013-02-06 21:24:00,27.0,20.0,30.25,ESE,120,0.0,6.0,76,0.00,,,0.11,weatherlink.com 1.10,2013-02-07 02:24:00,
2013-02-06 21:39:00,26.9,20.0,30.25,SSW,203,3.0,9.0,76,0.00,,,0.11,weatherlink.com 1.10,2013-02-07 02:39:00,
2013-02-06 21:54:00,26.8,20.0,30.26,South,179,1.0,6.0,76,0.00,,,0.11,weatherlink.com 1.10,2013-02-07 02:54:00,
2013-02-06 22:09:00,26.7,20.0,30.27,SSW,193,0.0,5.0,77,0.00,,,0.11,weatherlink.com 1.10,2013-02-07 03:09:00,
2013-02-06 22:24:00,26.5,20.0,30.26,SW,232,2.0,5.0,77,0.00,,,0.11,weatherlink.com 1.10,2013-02-07 03:24:00,
2013-02-06 22:39:00,26.2,20.0,30.25,South,184,2.0,4.0,78,0.00,,,0.11,weatherlink.com 1.10,2013-02-07 03:39:00,
2013-02-06 22:54:00,26.2,20.0,30.25,East,100,1.0,8.0,78,0.00,,,0.11,weatherlink.com 1.10,2013-02-07 03:54:00,
2013-02-06 23:09:00,26.3,20.0,30.26,SSE,155,0.0,5.0,78,0.00,,,0.11,weatherlink.com 1.10,2013-02-07 04:09:00,
2013-02-06 23:24:00,26.3,20.0,30.26,SSE,155,3.0,5.0,78,0.00,,,0.11,weatherlink.com 1.10,2013-02-07 04:24:00,
2013-02-06 23:39:00,26.3,21.0,30.26,SSE,167,2.0,5.0,80,0.00,,,0.11,weatherlink.com 1.10,2013-02-07 04:39:00,
2013-02-06 23:54:00,26.3,21.0,30.26,SSE,167,1.0,4.0,79,0.00,,,0.11,weatherlink.com 1.10,2013-02-07 04:54:00,